User: anonymous   Login
Location: Emblem
(62.4273°N, 6.4710°E)
Time: 06:34:29
(UTC+01:00)
Language:

Explorer 11/Cluster Stage 4 - Orbit

View from above orbital plane
View from above orbital plane
View from above satellite
View from above satellite

Ground track
Ground track

The orbit data is extracted from the following two-line orbital elements,

1 00107U 61013A   23029.73380659  .00004607  00000-0  59204-3 0  9996
2 00107  28.7886 175.3427 0537598 214.9645 141.4471 14.11229033101275
Epoch (UTC): 29 January 2023 17:36:40
Eccentricity: 0.0537598
inclination: 28.7886°
perigee height: 466 km
apogee height: 1244 km
right ascension of ascending node: 175.3427°
argument of perigee: 214.9645°
revolutions per day: 14.11229033
mean anomaly at epoch: 141.4471°
orbit number at epoch: 10127

The dashed part of the orbit path shows where the satellite is in the earth's shadow,  

DLR